• In Uzbekistan
  • List of Countries
  • For 7 days
  • Water Temperature
  • Satellite Maps
  • Weather Map
  • Weather Widgets
  • user-avatar
    Login

    Hourly Weather Perth

    Today, 26 July, Wednesday

    Time Temperature Precipitation Wind Pressure Humidity
    00:00 +13°C° 0 mm 4 mps 762 mmHg 83%
    01:00 +13°C° 0 mm 4 mps 762 mmHg 84%
    02:00 +13°C° 0 mm 5 mps 761 mmHg 86%
    03:00 +13°C° 0.2 mm 5 mps 761 mmHg 86%
    04:00 +14°C° 0.2 mm 5 mps 761 mmHg 87%
    05:00 +14°C° 0.2 mm 5 mps 761 mmHg 87%
    06:00 +14°C° 0.3 mm 5 mps 761 mmHg 87%
    07:00 +15°C° 0.3 mm 6 mps 761 mmHg 87%
    08:00 +15°C° 0.3 mm 6 mps 761 mmHg 87%
    09:00 +16°C° 0.5 mm 6 mps 761 mmHg 84%
    10:00 +17°C° 0.5 mm 6 mps 761 mmHg 81%
    11:00 +18°C° 0.5 mm 7 mps 761 mmHg 77%
    12:00 +19°C° 0.6 mm 6 mps 761 mmHg 77%
    13:00 +19°C° 0.6 mm 6 mps 761 mmHg 77%
    14:00 +19°C° 0 mm 6 mps 761 mmHg 74%
    15:00 +19°C° 0.1 mm 5 mps 761 mmHg 74%
    16:00 +18°C° 0.1 mm 4 mps 761 mmHg 75%
    17:00 +18°C° 0.1 mm 4 mps 762 mmHg 75%
    18:00 +16°C° 0 mm 3 mps 762 mmHg 78%
    19:00 +15°C° 0 mm 2 mps 762 mmHg 81%
    20:00 +14°C° 0 mm 1 mps 763 mmHg 83%
    21:00 +14°C° 0 mm 1 mps 763 mmHg 85%
    22:00 +13°C° 0 mm 1 mps 763 mmHg 86%
    23:00 +13°C° 0 mm 1 mps 763 mmHg 87%

    Tomorrow, 27 July, Thursday

    Time Temperature Precipitation Wind Pressure Humidity
    00:00 +13°C° 0 mm 1 mps 763 mmHg 88%
    01:00 +12°C° 0 mm 2 mps 763 mmHg 89%
    02:00 +12°C° 0 mm 2 mps 763 mmHg 89%
    03:00 +11°C° 0 mm 3 mps 762 mmHg 90%
    04:00 +11°C° 0 mm 3 mps 762 mmHg 90%
    05:00 +11°C° 0 mm 4 mps 761 mmHg 90%
    06:00 +12°C° 0 mm 4 mps 761 mmHg 90%
    07:00 +12°C° 0 mm 5 mps 761 mmHg 91%
    08:00 +13°C° 0 mm 6 mps 760 mmHg 92%
    09:00 +15°C° 0.1 mm 6 mps 760 mmHg 86%
    10:00 +17°C° 0.1 mm 7 mps 760 mmHg 80%
    11:00 +20°C° 0.1 mm 7 mps 759 mmHg 75%
    12:00 +20°C° 0.3 mm 8 mps 759 mmHg 71%
    13:00 +21°C° 0.3 mm 8 mps 758 mmHg 68%
    14:00 +21°C° 0.3 mm 9 mps 757 mmHg 64%
    15:00 +21°C° 0.1 mm 9 mps 757 mmHg 67%
    16:00 +20°C° 0.1 mm 8 mps 756 mmHg 70%
    17:00 +20°C° 0.1 mm 8 mps 756 mmHg 73%
    18:00 +18°C° 0.1 mm 8 mps 756 mmHg 76%
    19:00 +18°C° 0.1 mm 8 mps 756 mmHg 80%
    20:00 +17°C° 0.1 mm 8 mps 755 mmHg 83%
    21:00 +17°C° 0.2 mm 9 mps 755 mmHg 82%
    22:00 +17°C° 0.2 mm 9 mps 755 mmHg 81%
    23:00 +17°C° 0.2 mm 10 mps 755 mmHg 81%

    Day after tomorrow, 28 July, Friday

    Time Temperature Precipitation Wind Pressure Humidity
    00:00 +17°C° 0.7 mm 10 mps 755 mmHg 82%
    01:00 +17°C° 0.7 mm 10 mps 754 mmHg 83%
    02:00 +17°C° 0.7 mm 10 mps 754 mmHg 85%
    03:00 +16°C° 1.5 mm 9 mps 754 mmHg 85%
    04:00 +16°C° 1.5 mm 9 mps 754 mmHg 85%
    05:00 +16°C° 1.5 mm 9 mps 753 mmHg 86%
    06:00 +16°C° 0.3 mm 9 mps 754 mmHg 83%
    07:00 +16°C° 0.3 mm 9 mps 754 mmHg 80%
    08:00 +16°C° 0.3 mm 9 mps 754 mmHg 76%
    09:00 +16°C° 0.4 mm 9 mps 755 mmHg 73%
    10:00 +16°C° 0.4 mm 10 mps 755 mmHg 70%
    11:00 +16°C° 0.4 mm 11 mps 756 mmHg 67%
    12:00 +16°C° 0.5 mm 11 mps 755 mmHg 69%
    13:00 +14°C° 0.5 mm 10 mps 755 mmHg 71%
    14:00 +13°C° 0.5 mm 10 mps 755 mmHg 72%
    15:00 +13°C° 0.4 mm 10 mps 756 mmHg 73%
    16:00 +12°C° 0.4 mm 9 mps 756 mmHg 74%
    17:00 +12°C° 0.4 mm 9 mps 757 mmHg 75%
    18:00 +11°C° 0.3 mm 8 mps 757 mmHg 75%
    19:00 +11°C° 0.3 mm 8 mps 758 mmHg 75%
    20:00 +11°C° 0.3 mm 8 mps 759 mmHg 76%
    21:00 +10°C° 0.4 mm 8 mps 759 mmHg 76%
    22:00 +10°C° 0.4 mm 8 mps 760 mmHg 77%
    23:00 +10°C° 0.4 mm 8 mps 760 mmHg 77%

    29 July, Saturday

    Time Temperature Precipitation Wind Pressure Humidity
    00:00 +10°C° 0.4 mm 8 mps 760 mmHg 77%
    01:00 +10°C° 0.4 mm 8 mps 760 mmHg 77%
    02:00 +10°C° 0.4 mm 8 mps 760 mmHg 77%
    03:00 +10°C° 0.2 mm 8 mps 760 mmHg 77%
    04:00 +10°C° 0.2 mm 7 mps 761 mmHg 76%
    05:00 +10°C° 0.2 mm 7 mps 761 mmHg 76%
    06:00 +10°C° 0.3 mm 7 mps 761 mmHg 76%
    07:00 +11°C° 0.3 mm 7 mps 762 mmHg 77%
    08:00 +11°C° 0.3 mm 7 mps 762 mmHg 78%
    09:00 +12°C° 0.4 mm 7 mps 762 mmHg 75%
    10:00 +12°C° 0.4 mm 7 mps 762 mmHg 72%
    11:00 +13°C° 0.4 mm 8 mps 763 mmHg 70%
    12:00 +13°C° 0.4 mm 8 mps 762 mmHg 69%
    13:00 +13°C° 0.4 mm 8 mps 762 mmHg 69%
    14:00 +15°C° 0.4 mm 8 mps 761 mmHg 68%
    15:00 +14°C° 0.3 mm 7 mps 762 mmHg 70%
    16:00 +14°C° 0.3 mm 7 mps 762 mmHg 72%
    17:00 +14°C° 0.3 mm 7 mps 762 mmHg 74%
    18:00 +12°C° 0.4 mm 7 mps 762 mmHg 77%
    19:00 +12°C° 0.4 mm 7 mps 762 mmHg 79%
    20:00 +13°C° 0.4 mm 6 mps 763 mmHg 82%
    21:00 +12°C° 0.5 mm 7 mps 763 mmHg 82%
    22:00 +12°C° 0.5 mm 7 mps 763 mmHg 82%
    23:00 +12°C° 0.5 mm 7 mps 763 mmHg 82%

    30 July, Sunday

    Time Temperature Precipitation Wind Pressure Humidity
    00:00 +12°C° 0.4 mm 7 mps 763 mmHg 82%
    01:00 +12°C° 0.4 mm 7 mps 763 mmHg 82%
    02:00 +12°C° 0.4 mm 7 mps 763 mmHg 82%
    03:00 +11°C° 0.2 mm 7 mps 763 mmHg 82%
    04:00 +11°C° 0.2 mm 6 mps 763 mmHg 82%
    05:00 +11°C° 0.2 mm 6 mps 763 mmHg 82%
    06:00 +11°C° 0.1 mm 6 mps 764 mmHg 81%
    07:00 +12°C° 0.1 mm 5 mps 764 mmHg 80%
    08:00 +12°C° 0.1 mm 5 mps 765 mmHg 80%
    09:00 +13°C° 0.1 mm 5 mps 765 mmHg 74%
    10:00 +14°C° 0.1 mm 4 mps 765 mmHg 69%
    11:00 +15°C° 0.1 mm 4 mps 766 mmHg 63%
    12:00 +15°C° 0 mm 4 mps 765 mmHg 60%
    13:00 +17°C° 0 mm 4 mps 765 mmHg 57%
    14:00 +17°C° 0 mm 3 mps 764 mmHg 54%
    15:00 +16°C° 0 mm 3 mps 764 mmHg 58%
    16:00 +16°C° 0 mm 3 mps 764 mmHg 61%
    17:00 +15°C° 0 mm 2 mps 764 mmHg 64%
    18:00 +14°C° 0 mm 2 mps 765 mmHg 68%
    19:00 +13°C° 0 mm 1 mps 765 mmHg 72%
    20:00 +12°C° 0 mm 1 mps 766 mmHg 76%
    21:00 +11°C° 0 mm 1 mps 765 mmHg 78%
    22:00 +10°C° 0 mm 2 mps 765 mmHg 79%
    23:00 +10°C° 0 mm 2 mps 765 mmHg 81%

    31 July, Monday

    Time Temperature Precipitation Wind Pressure Humidity
    00:00 +9°C° 0 mm 2 mps 764 mmHg 82%
    01:00 +9°C° 0 mm 3 mps 764 mmHg 83%
    02:00 +9°C° 0 mm 3 mps 763 mmHg 85%
    03:00 +8°C° 0 mm 4 mps 763 mmHg 85%
    04:00 +8°C° 0 mm 4 mps 763 mmHg 85%
    05:00 +8°C° 0 mm 5 mps 762 mmHg 85%
    06:00 +8°C° 0.1 mm 5 mps 762 mmHg 83%
    07:00 +9°C° 0.1 mm 6 mps 762 mmHg 82%
    08:00 +9°C° 0.1 mm 6 mps 761 mmHg 80%
    09:00 +11°C° 0.1 mm 7 mps 761 mmHg 75%
    10:00 +12°C° 0.1 mm 7 mps 760 mmHg 69%
    11:00 +15°C° 0.1 mm 8 mps 759 mmHg 63%
    12:00 +15°C° 0.6 mm 8 mps 758 mmHg 66%
    13:00 +15°C° 0.6 mm 8 mps 757 mmHg 69%
    14:00 +15°C° 0.6 mm 8 mps 756 mmHg 71%
    15:00 +14°C° 2.6 mm 7 mps 756 mmHg 77%
    16:00 +11°C° 2.6 mm 7 mps 756 mmHg 82%
    17:00 +10°C° 2.6 mm 6 mps 756 mmHg 88%
    18:00 +9°C° 1.2 mm 6 mps 757 mmHg 88%
    19:00 +9°C° 1.2 mm 6 mps 758 mmHg 89%
    20:00 +8°C° 1.2 mm 6 mps 758 mmHg 89%
    21:00 +8°C° 0.9 mm 6 mps 759 mmHg 88%
    22:00 +8°C° 0.9 mm 6 mps 759 mmHg 87%
    23:00 +8°C° 0.9 mm 6 mps 760 mmHg 87%
    Show more